Starlink 5842

operational
NORAD ID: 56491 Int'l Des: 2023-064 Owner: SPXS Country: US Constellation: starlink
LEOCIRCULAR

About Starlink 5842

Description loading...

Live Position

Loading 3D Globe...

Upcoming Passes

Altitude History

Altitude vs Time

uPlot chart will show altitude changes over time

Two-Line Element Set

1 56491U 23064AV 26035.51744816 -.00000481 00000-0 -32521-4 0 9994
2 56491 69.9985 188.0917 0002983 267.2071 92.8747 14.98341516151268
Epoch: Feb 4, 2026 • Age: 12 hours

Current Status

Altitude 574.0 km
Velocity 7.57 km/s
Sub-Earth Point 11.63°N, 138.31°W
Launch Date May 10, 2023
Age 2.7 years
Type internet

Technical Details

Classification Payload
Mass 305.00 kg
Dry Mass 290.00 kg
Total Mass 305.00 kg
Length 0.20 m
Diameter 2.80 m
Span 9.00 m
Shape Box + pan
Manufacturer SPXS
Bus Type Starlink
Phase Status In Orbit
Owner/State SPXS/US

Large Constellations

Loading constellations...